#timestamp,LO_Frequency,Hit,StdDev 
1528315215.8,286046998.3,N
1528315235.6,286046998.4,N
1528315255.5,286047000.6,N
1528315275.3,286046998.4,N
1528315295.1,286046998.4,N
1528315315.9,286047001.0,N
1528315335.7,286047000.5,N
1528315355.5,286047000.1,N
1528315375.4,286047002.0,N
1528315395.2,286047001.3,N
1528315415.1,286047001.6,N
1528315416.0,286047001.6,N
1528315435.8,286047001.6,N
1528315455.6,286047001.6,N
1528315475.5,286047002.0,N
1528315495.3,286047002.5,N
1528315515.1,286047002.8,N
1528315535.9,286047000.0,N
1528315555.7,286047001.5,N
1528315575.6,286047001.6,N
1528315595.4,286047000.9,N
1528315615.2,286047000.1,N
1528315635.1,286046998.3,N
1528315636.0,286046998.3,N
1528315655.8,286047000.6,N
1528315675.6,286046998.7,N
1528315695.5,286046998.2,N
1528315715.3,286047000.4,N
1528315735.2,286047002.5,N
1528315755.9,286047003.6,N
1528315775.7,286047004.2,N
1528315795.6,286047001.5,N
1528315815.4,286047002.6,N
1528315835.2,286047002.4,N
1528315855.1,286047002.8,N
1528315856.0,286047002.8,N
1528315875.8,286047002.2,N
1528315895.7,286047001.3,N
1528315915.5,286047001.3,N
1528315935.3,286047003.2,N
1528315955.2,286047003.3,N
1528315975.0,286047005.2,Y
1528315975.9,286047005.2,P
1528315995.8,286047001.4,N
1528316015.6,286047002.2,N
1528316035.4,286046999.8,N
1528316055.3,286046999.7,N
1528316075.1,286047000.4,N
1528316095.8,286046999.9,N
1528316115.7,286047001.0,N
1528316135.5,286046999.9,N
1528316155.4,286047000.0,N
1528316175.2,286047002.3,N
1528316195.0,286047002.8,N
1528316195.9,286047002.8,N
1528316215.8,286046999.8,N
1528316235.6,286047000.5,N
1528316255.4,286047000.3,N
1528316275.3,286046998.8,N
1528316295.1,286046998.5,N
1528316315.9,286046998.5,N
1528316335.7,286047002.8,N
1528316355.5,286047003.9,N
1528316375.4,286047000.0,N
1528316395.2,286047002.7,N
1528316415.0,286047002.7,N
1528316415.9,286047002.7,N
1528316435.8,286047002.1,N
1528316455.6,286046999.9,N
1528316475.5,286047002.5,N
1528316495.3,286047002.0,N
1528316515.1,286047002.7,N
1528316535.9,286046999.8,N
1528316555.7,286046999.9,N
1528316575.5,286047002.8,N
1528316595.4,286047003.8,N
1528316615.2,286047004.3,N
1528316635.1,286047001.5,N
1528316636.0,286047001.5,N
1528316655.8,286047003.5,N
1528316675.6,286047004.2,N
1528316695.5,286047002.5,N
1528316715.3,286047001.8,N
1528316735.1,286047001.9,N
1528316755.9,286047002.4,N
1528316775.7,286047001.4,N
1528316795.6,286047002.3,N
1528316815.4,286047002.3,N
1528316835.2,286047000.9,N
1528316855.1,286047000.4,N
1528316856.0,286047000.4,N
1528316875.8,286047000.8,N
1528316895.7,286047000.1,N
1528316915.5,286047002.8,N
1528316935.3,286047002.3,N
1528316955.2,286047002.2,N
1528316975.0,286047002.2,N
1528316975.9,286047002.2,N
1528316995.7,286047002.7,N
1528317015.6,286047000.1,N
1528317035.4,286047000.3,N
1528317055.3,286047001.4,N
1528317075.1,286047003.5,N
1528317076.0,286047003.5,N
1528317095.8,286047004.2,Y
1528317115.7,286047001.8,P
1528317135.5,286047001.5,P
1528317155.3,286047003.5,P
1528317175.2,286047004.4,Y
1528317195.0,286047001.5,P
1528317195.9,286047001.5,P
1528317215.8,286047004.3,P
1528317235.6,286047001.4,N
1528317255.4,286047004.0,Y
1528317275.3,286046998.5,P
1528317295.1,286047001.1,N
1528317315.9,286047000.5,N
1528317335.7,286047001.0,N
1528317355.5,286047000.8,N
1528317375.4,286046999.4,N
1528317395.2,286046999.3,N
1528317415.0,286046997.7,N
1528317416.0,286046997.7,N
1528317435.8,286046999.3,N
1528317455.6,286046996.7,N
1528317475.5,286046997.1,N
1528317495.3,286046996.7,N
1528317515.1,286046998.7,N
1528317535.9,286047001.2,N
1528317555.7,286046999.1,N
1528317575.6,286047000.0,N
1528317595.4,286047001.9,N
1528317615.2,286047001.1,N
1528317635.1,286047000.0,N
1528317636.0,286047000.0,N
1528317655.8,286047000.7,N
1528317675.6,286047001.2,N
1528317695.5,286047001.1,N
1528317715.3,286046998.5,N
1528317735.2,286046996.5,N
1528317755.9,286046999.5,N
1528317775.7,286046997.3,N
1528317795.6,286046999.6,N
1528317815.4,286046998.9,N
1528317835.2,286046997.2,N
1528317855.1,286046995.3,N
1528317856.0,286046995.3,N
1528317875.8,286046999.5,N
1528317895.7,286046999.2,N
1528317915.5,286046997.6,N
1528317935.3,286046997.5,N
1528317955.2,286046995.0,N
1528317975.0,286046995.5,N
1528317975.9,286046995.5,N
1528317995.8,286046997.4,N
1528318015.6,286046995.4,N
1528318035.4,286046999.1,N
1528318055.3,286046996.7,N
1528318075.1,286046997.1,N
1528318095.8,286046997.7,N
1528318115.7,286046998.0,N
1528318135.5,286046997.6,N
1528318155.4,286046995.1,N
1528318175.2,286046997.3,N
1528318195.0,286046995.4,N
1528318195.9,286046995.4,N
1528318215.8,286046996.0,N
1528318235.6,286046993.3,Y
1528318255.5,286046996.7,P
1528318275.3,286046997.8,P
1528318295.1,286046996.6,P
1528318315.9,286046997.8,Y
1528318335.7,286047000.5,P
1528318355.6,286047000.3,N
1528318375.4,286047000.1,N
1528318395.2,286047000.3,N
1528318415.1,286046998.6,N
1528318416.0,286046998.6,N
1528318435.8,286046999.3,N
1528318485.7,286046998.6,E
1528318495.6,286047000.8,N
1528318515.4,286047002.8,P
1528318535.3,286047002.6,N
1528318555.1,286047002.3,N
1528318575.8,286047000.3,N
1528318595.7,286047000.3,N
1528318615.5,286046998.2,N
1528318635.4,286046998.5,N
1528318655.2,286047000.8,N
1528318675.0,286047002.4,N
1528318675.9,286047002.4,N
1528318695.8,286046999.9,N
1528318715.6,286046998.5,N
1528318735.5,286047002.5,N
1528318755.3,286047000.1,N
1528318775.1,286046998.7,N
1528318795.9,286046998.4,N
